Time,TemperatureF,DewpointF,PressureIn,WindDirection,WindDirectionDegrees,WindSpeedMPH,WindSpeedGustMPH,Humidity,HourlyPrecipIn,Conditions,Clouds,dailyrainin,SolarRadiationWatts/m^2,SoftwareType,DateUTC
2013-01-06 00:26:00,20.8,13.0,30.23,WNW,290,3.0,4.0,71,0.00,,,0.00,0,weatherlink.com 1.10,2013-01-06 05:26:00,
2013-01-06 00:41:00,20.2,13.0,30.22,WNW,290,0.0,2.0,72,0.00,,,0.00,0,weatherlink.com 1.10,2013-01-06 05:41:00,
2013-01-06 00:56:00,21.6,13.0,30.21,WNW,290,0.0,4.0,70,0.00,,,0.00,0,weatherlink.com 1.10,2013-01-06 05:56:00,
2013-01-06 01:11:00,21.1,13.0,30.21,WNW,290,0.0,3.0,70,0.00,,,0.00,0,weatherlink.com 1.10,2013-01-06 06:11:00,
2013-01-06 01:26:00,20.6,13.0,30.20,WNW,290,0.0,2.0,72,0.00,,,0.00,0,weatherlink.com 1.10,2013-01-06 06:26:00,
2013-01-06 01:41:00,20.9,13.0,30.22,WNW,290,1.0,3.0,71,0.00,,,0.00,0,weatherlink.com 1.10,2013-01-06 06:41:00,
2013-01-06 01:56:00,21.5,14.0,30.23,SSE,150,0.0,1.0,74,0.00,,,0.00,,weatherlink.com 1.10,2013-01-06 06:56:00,
2013-01-06 02:11:00,22.3,15.0,30.23,SSE,150,0.0,1.0,73,0.00,,,0.00,,weatherlink.com 1.10,2013-01-06 07:11:00,
2013-01-06 02:26:00,22.3,15.0,30.22,East,94,0.0,2.0,74,0.00,,,0.00,,weatherlink.com 1.10,2013-01-06 07:26:00,
2013-01-06 02:41:00,23.6,16.0,30.20,South,172,3.0,8.0,72,0.00,,,0.00,,weatherlink.com 1.10,2013-01-06 07:41:00,
2013-01-06 02:56:00,23.8,16.0,30.20,SE,145,2.0,5.0,71,0.00,,,0.00,,weatherlink.com 1.10,2013-01-06 07:56:00,
2013-01-06 03:11:00,22.5,14.0,30.19,SSW,203,6.0,13.0,71,0.00,,,0.00,0,weatherlink.com 1.10,2013-01-06 08:11:00,
2013-01-06 03:26:00,22.4,14.0,30.18,SSW,204,6.0,12.0,70,0.00,,,0.00,0,weatherlink.com 1.10,2013-01-06 08:26:00,
2013-01-06 03:41:00,22.2,14.0,30.18,SSW,198,3.0,11.0,71,0.00,,,0.00,0,weatherlink.com 1.10,2013-01-06 08:41:00,
2013-01-06 03:56:00,23.0,15.0,30.17,SW,221,3.0,7.0,70,0.00,,,0.00,0,weatherlink.com 1.10,2013-01-06 08:56:00,
2013-01-06 04:11:00,23.0,15.0,30.16,SW,221,2.0,4.0,71,0.00,,,0.00,0,weatherlink.com 1.10,2013-01-06 09:11:00,
2013-01-06 04:26:00,21.4,16.0,30.16,SW,221,2.0,4.0,78,0.00,,,0.00,0,weatherlink.com 1.10,2013-01-06 09:26:00,
2013-01-06 04:42:00,21.4,16.0,30.14,SW,221,3.0,3.0,78,0.00,,,0.00,0,weatherlink.com 1.10,2013-01-06 09:42:00,
2013-01-06 04:57:00,22.5,16.0,30.13,South,190,3.0,9.0,77,0.00,,,0.00,0,weatherlink.com 1.10,2013-01-06 09:57:00,
2013-01-06 05:12:00,22.5,17.0,30.12,South,185,2.0,8.0,78,0.00,,,0.00,0,weatherlink.com 1.10,2013-01-06 10:12:00,
2013-01-06 05:27:00,22.5,17.0,30.12,South,184,4.0,6.0,78,0.00,,,0.00,0,weatherlink.com 1.10,2013-01-06 10:27:00,
2013-01-06 05:42:00,22.0,16.0,30.12,South,184,0.0,4.0,79,0.00,,,0.00,0,weatherlink.com 1.10,2013-01-06 10:42:00,
2013-01-06 05:57:00,22.1,17.0,30.11,South,184,3.0,5.0,80,0.00,,,0.00,0,weatherlink.com 1.10,2013-01-06 10:57:00,
2013-01-06 06:12:00,21.9,17.0,30.11,SSW,194,4.0,8.0,81,0.00,,,0.00,0,weatherlink.com 1.10,2013-01-06 11:12:00,
2013-01-06 06:27:00,21.7,17.0,30.11,SSW,194,2.0,7.0,82,0.00,,,0.00,0,weatherlink.com 1.10,2013-01-06 11:27:00,
2013-01-06 06:42:00,21.5,17.0,30.10,SSW,194,1.0,3.0,83,0.00,,,0.00,0,weatherlink.com 1.10,2013-01-06 11:42:00,
2013-01-06 07:12:00,19.9,17.0,30.09,South,191,0.0,3.0,89,0.00,,,0.00,0,weatherlink.com 1.10,2013-01-06 12:12:00,
2013-01-06 07:27:00,19.7,17.0,30.08,South,191,0.0,4.0,89,0.00,,,0.00,0,weatherlink.com 1.10,2013-01-06 12:27:00,
2013-01-06 07:42:00,19.3,17.0,30.08,South,191,0.0,2.0,90,0.00,,,0.00,7,weatherlink.com 1.10,2013-01-06 12:42:00,
2013-01-06 07:57:00,20.0,18.0,30.07,South,191,0.0,5.0,91,0.00,,,0.00,26,weatherlink.com 1.10,2013-01-06 12:57:00,
2013-01-06 08:12:00,20.4,19.0,30.07,SSW,194,3.0,6.0,92,0.00,,,0.00,33,weatherlink.com 1.10,2013-01-06 13:12:00,
2013-01-06 08:27:00,21.2,20.0,30.07,WSW,250,8.0,13.0,93,0.00,,,0.00,33,weatherlink.com 1.10,2013-01-06 13:27:00,
2013-01-06 08:42:00,22.2,20.0,30.07,WSW,237,6.0,15.0,92,0.00,,,0.00,54,weatherlink.com 1.10,2013-01-06 13:42:00,
2013-01-06 08:57:00,22.7,21.0,30.06,WSW,244,7.0,15.0,92,0.00,,,0.00,90,weatherlink.com 1.10,2013-01-06 13:57:00,
2013-01-06 09:12:00,23.1,21.0,30.06,WSW,238,4.0,9.0,90,0.00,,,0.00,216,weatherlink.com 1.10,2013-01-06 14:12:00,
2013-01-06 09:27:00,22.8,20.0,30.07,WSW,251,2.0,4.0,90,0.00,,,0.00,,weatherlink.com 1.10,2013-01-06 14:27:00,
2013-01-06 09:42:00,21.8,20.0,30.06,SW,236,5.0,6.0,92,0.00,,,0.00,,weatherlink.com 1.10,2013-01-06 14:42:00,
2013-01-06 09:57:00,24.2,22.0,30.06,WSW,238,7.0,12.0,92,0.00,,,0.00,,weatherlink.com 1.10,2013-01-06 14:57:00,
2013-01-06 10:12:00,25.7,23.0,30.06,WSW,241,9.0,13.0,89,0.00,,,0.00,,weatherlink.com 1.10,2013-01-06 15:12:00,
2013-01-06 10:27:00,-999.0,-99.9,30.05,North,-999,-999.0,-999.0,-999,0.00,,,0.00,,weatherlink.com 1.10,2013-01-06 15:27:00,
2013-01-06 10:43:00,27.3,23.0,30.04,WSW,248,7.0,13.0,85,0.00,,,0.00,,weatherlink.com 1.10,2013-01-06 15:43:00,
2013-01-06 10:58:00,27.6,23.0,30.03,SW,230,7.0,16.0,83,0.00,,,0.00,,weatherlink.com 1.10,2013-01-06 15:58:00,
2013-01-06 11:13:00,28.3,24.0,30.02,WSW,244,11.0,20.0,82,0.00,,,0.00,,weatherlink.com 1.10,2013-01-06 16:13:00,
2013-01-06 11:28:00,28.8,24.0,30.02,WSW,240,4.0,12.0,82,0.00,,,0.00,,weatherlink.com 1.10,2013-01-06 16:28:00,
2013-01-06 11:43:00,28.9,23.0,30.00,West,259,6.0,12.0,80,0.00,,,0.00,,weatherlink.com 1.10,2013-01-06 16:43:00,
2013-01-06 11:58:00,29.6,24.0,29.99,SW,234,4.0,13.0,79,0.00,,,0.00,,weatherlink.com 1.10,2013-01-06 16:58:00,
2013-01-06 12:13:00,29.7,24.0,29.99,WSW,257,2.0,13.0,79,0.00,,,0.00,,weatherlink.com 1.10,2013-01-06 17:13:00,
2013-01-06 12:28:00,29.2,24.0,29.99,SW,229,5.0,15.0,80,0.00,,,0.00,,weatherlink.com 1.10,2013-01-06 17:28:00,
2013-01-06 12:43:00,29.4,24.0,29.99,WSW,248,3.0,16.0,80,0.00,,,0.00,,weatherlink.com 1.10,2013-01-06 17:43:00,
2013-01-06 12:58:00,29.5,24.0,29.99,WSW,240,6.0,13.0,81,0.00,,,0.00,,weatherlink.com 1.10,2013-01-06 17:58:00,
2013-01-06 13:13:00,29.6,24.0,29.98,WSW,252,4.0,12.0,80,0.00,,,0.00,,weatherlink.com 1.10,2013-01-06 18:13:00,
2013-01-06 13:28:00,29.8,25.0,29.98,SW,228,5.0,14.0,81,0.00,,,0.00,,weatherlink.com 1.10,2013-01-06 18:28:00,
2013-01-06 13:43:00,29.9,25.0,29.98,WSW,244,6.0,12.0,81,0.00,,,0.00,,weatherlink.com 1.10,2013-01-06 18:43:00,
2013-01-06 13:59:00,30.3,25.0,29.98,SW,224,9.0,11.0,81,0.00,,,0.00,,weatherlink.com 1.10,2013-01-06 18:59:00,
2013-01-06 14:14:00,30.5,25.0,29.99,WSW,246,3.0,10.0,81,0.00,,,0.00,,weatherlink.com 1.10,2013-01-06 19:14:00,
2013-01-06 14:29:00,31.0,26.0,29.98,SSW,208,5.0,11.0,80,0.00,,,0.00,,weatherlink.com 1.10,2013-01-06 19:29:00,
2013-01-06 15:14:00,31.6,26.0,29.97,NW,311,0.0,7.0,79,0.00,,,0.00,,weatherlink.com 1.10,2013-01-06 20:14:00,
2013-01-06 15:29:00,31.3,26.0,29.97,WSW,253,4.0,8.0,79,0.00,,,0.00,,weatherlink.com 1.10,2013-01-06 20:29:00,
2013-01-06 15:44:00,30.8,25.0,29.97,WSW,240,4.0,5.0,80,0.00,,,0.00,,weatherlink.com 1.10,2013-01-06 20:44:00,
2013-01-06 15:59:00,31.2,26.0,29.97,SW,228,4.0,8.0,81,0.00,,,0.00,,weatherlink.com 1.10,2013-01-06 20:59:00,
2013-01-06 16:14:00,31.0,26.0,29.97,WSW,237,6.0,11.0,81,0.00,,,0.00,,weatherlink.com 1.10,2013-01-06 21:14:00,
2013-01-06 16:29:00,31.0,26.0,29.97,SW,227,2.0,7.0,81,0.00,,,0.00,,weatherlink.com 1.10,2013-01-06 21:29:00,
2013-01-06 16:44:00,30.9,26.0,29.98,SW,224,2.0,6.0,81,0.00,,,0.00,,weatherlink.com 1.10,2013-01-06 21:44:00,
2013-01-06 16:59:00,31.2,26.0,29.98,SW,234,1.0,7.0,81,0.00,,,0.00,,weatherlink.com 1.10,2013-01-06 21:59:00,
2013-01-06 17:14:00,31.4,26.0,29.98,SW,234,5.0,8.0,81,0.00,,,0.00,,weatherlink.com 1.10,2013-01-06 22:14:00,
2013-01-06 17:30:00,32.0,27.0,29.98,SW,227,3.0,12.0,80,0.00,,,0.00,,weatherlink.com 1.10,2013-01-06 22:30:00,
2013-01-06 17:45:00,32.0,27.0,29.98,SW,228,3.0,10.0,80,0.00,,,0.00,,weatherlink.com 1.10,2013-01-06 22:45:00,
2013-01-06 18:30:00,31.2,26.0,29.99,WSW,257,9.0,15.0,80,0.00,,,0.00,0,weatherlink.com 1.10,2013-01-06 23:30:00,
2013-01-06 18:45:00,31.1,26.0,29.99,WSW,252,8.0,17.0,80,0.00,,,0.00,0,weatherlink.com 1.10,2013-01-06 23:45:00,
2013-01-06 19:00:00,31.0,26.0,29.99,WSW,257,9.0,15.0,82,0.00,,,0.00,0,weatherlink.com 1.10,2013-01-07 00:00:00,
2013-01-06 19:15:00,30.9,26.0,29.99,West,272,10.0,21.0,83,0.00,,,0.00,0,weatherlink.com 1.10,2013-01-07 00:15:00,
2013-01-06 19:30:00,30.7,26.0,29.99,West,272,12.0,19.0,83,0.00,,,0.00,0,weatherlink.com 1.10,2013-01-07 00:30:00,
2013-01-06 19:45:00,30.6,26.0,30.00,West,259,8.0,17.0,83,0.00,,,0.00,0,weatherlink.com 1.10,2013-01-07 00:45:00,
2013-01-06 20:00:00,30.8,26.0,29.99,West,268,9.0,18.0,83,0.00,,,0.00,0,weatherlink.com 1.10,2013-01-07 01:00:00,
2013-01-06 20:15:00,31.0,26.0,29.99,WSW,257,14.0,22.0,83,0.00,,,0.00,0,weatherlink.com 1.10,2013-01-07 01:15:00,
2013-01-06 20:30:00,30.9,26.0,29.99,WSW,240,12.0,19.0,83,0.00,,,0.00,0,weatherlink.com 1.10,2013-01-07 01:30:00,
2013-01-06 20:45:00,31.0,26.0,29.99,WSW,244,13.0,22.0,83,0.00,,,0.00,0,weatherlink.com 1.10,2013-01-07 01:45:00,
2013-01-06 21:00:00,30.9,27.0,29.98,WSW,238,8.0,20.0,84,0.00,,,0.00,0,weatherlink.com 1.10,2013-01-07 02:00:00,
2013-01-06 21:15:00,30.9,27.0,29.98,WSW,257,11.0,21.0,85,0.00,,,0.00,0,weatherlink.com 1.10,2013-01-07 02:15:00,
2013-01-06 21:30:00,30.9,27.0,29.98,SW,234,14.0,20.0,85,0.00,,,0.00,0,weatherlink.com 1.10,2013-01-07 02:30:00,
2013-01-06 21:45:00,31.0,27.0,29.98,WSW,237,7.0,24.0,84,0.00,,,0.00,0,weatherlink.com 1.10,2013-01-07 02:45:00,
2013-01-06 22:00:00,31.0,27.0,29.98,West,267,7.0,23.0,85,0.00,,,0.00,0,weatherlink.com 1.10,2013-01-07 03:00:00,
2013-01-06 22:15:00,31.9,28.0,29.98,SW,227,10.0,12.0,85,0.00,,,0.00,,weatherlink.com 1.10,2013-01-07 03:15:00,
2013-01-06 22:30:00,32.0,28.0,29.98,WSW,241,4.0,14.0,85,0.00,,,0.00,,weatherlink.com 1.10,2013-01-07 03:30:00,
2013-01-06 22:45:00,31.9,28.0,29.99,WSW,244,1.0,13.0,85,0.00,,,0.00,,weatherlink.com 1.10,2013-01-07 03:45:00,
2013-01-06 23:15:00,31.7,28.0,29.98,WSW,255,8.0,14.0,87,0.00,,,0.00,,weatherlink.com 1.10,2013-01-07 04:15:00,
2013-01-06 23:30:00,31.8,28.0,29.98,SW,233,9.0,14.0,87,0.00,,,0.00,,weatherlink.com 1.10,2013-01-07 04:30:00,